SCF3749 ZPLJ-ZBAD

Flight info

Callsign SCF3749
Flight time N/A
Altitude 31100
Route SB21D SB W162 KAKMI W144 IGNAK W179 WFX W233 AGULU W81 APIMI W275 WJC G212 BELAX BELAX5L
Aircraft A320/M-SDE3FGHIRWY/LB1

Departure

Time 2026-05-06 09:02
Airport Lijiang Sanyi International Airport (ZPLJ)

Arrival

Time N/A
Airport Beijing Daxing International Airport (ZBAD)
Time Latitude Longitude Altitude Speed Heading
2026-05-06 08:50 26.66915 100.24477 7283 ft 0 kts 107°
2026-05-06 08:56 26.66915 100.24476 7281 ft 2 kts 107°
2026-05-06 08:56 26.66920 100.24458 7279 ft 3 kts 107°
2026-05-06 08:57 26.66926 100.24439 7287 ft 3 kts 107°
2026-05-06 08:57 26.66931 100.24421 7282 ft 3 kts 92°
2026-05-06 08:57 26.66937 100.24404 7282 ft 2 kts 163°
2026-05-06 08:57 26.66948 100.24402 7282 ft 0 kts 193°
2026-05-06 08:59 26.66923 100.24394 7285 ft 7 kts 197°
2026-05-06 08:59 26.66861 100.24373 7282 ft 11 kts 197°
2026-05-06 08:59 26.66789 100.24348 7282 ft 12 kts 197°
2026-05-06 09:00 26.66684 100.24312 7282 ft 19 kts 197°
2026-05-06 09:00 26.66555 100.24269 7281 ft 19 kts 197°
2026-05-06 09:00 26.66432 100.24226 7281 ft 14 kts 197°
2026-05-06 09:00 26.66386 100.24157 7281 ft 12 kts 282°
2026-05-06 09:01 26.66411 100.24069 7281 ft 9 kts 287°
2026-05-06 09:01 26.66451 100.24050 7282 ft 6 kts 17°
2026-05-06 09:01 26.66459 100.24053 7282 ft 0 kts 17°
2026-05-06 09:01 26.66488 100.24063 7283 ft 19 kts 17°
2026-05-06 09:02 26.66843 100.24182 7284 ft 90 kts 17°
2026-05-06 09:02 26.67666 100.24462 7278 ft 155 kts 17°
2026-05-06 09:02 26.68857 100.24891 7440 ft 195 kts 17°
2026-05-06 09:02 26.70190 100.25310 8179 ft 204 kts
2026-05-06 09:03 26.71599 100.25676 8709 ft 213 kts
2026-05-06 09:03 26.73083 100.26047 9444 ft 224 kts
2026-05-06 09:03 26.74623 100.26436 10163 ft 230 kts
2026-05-06 09:03 26.76201 100.26855 10870 ft 236 kts
2026-05-06 09:04 26.77794 100.27383 11571 ft 243 kts 19°
2026-05-06 09:04 26.79206 100.28454 12214 ft 249 kts 45°
2026-05-06 09:04 26.80093 100.30139 12555 ft 258 kts 73°
2026-05-06 09:04 26.80393 100.32139 12956 ft 263 kts 86°
2026-05-06 09:05 26.80392 100.34183 13400 ft 263 kts 92°
2026-05-06 09:05 26.80393 100.36227 13762 ft 261 kts 85°
2026-05-06 09:05 26.80644 100.38233 13961 ft 261 kts 77°
2026-05-06 09:05 26.81046 100.40243 14206 ft 269 kts 75°
2026-05-06 09:06 26.81512 100.42337 14348 ft 286 kts 74°
2026-05-06 09:06 26.82009 100.44564 14433 ft 303 kts 75°
2026-05-06 09:06 26.82519 100.46937 14563 ft 324 kts 75°
2026-05-06 09:06 26.83044 100.49475 14685 ft 345 kts 76°
2026-05-06 09:07 26.83585 100.52172 14808 ft 364 kts 75°
2026-05-06 09:07 26.84022 100.54986 14924 ft 381 kts 84°
2026-05-06 09:07 26.84166 100.58047 15059 ft 396 kts 87°
2026-05-06 09:07 26.84304 100.61164 15344 ft 406 kts 86°
2026-05-06 09:08 26.84451 100.64298 15658 ft 412 kts 86°
2026-05-06 09:08 26.84605 100.67513 16177 ft 414 kts 86°
2026-05-06 09:08 26.84763 100.70738 16680 ft 417 kts 85°
2026-05-06 09:08 26.84924 100.73992 17175 ft 420 kts 85°
2026-05-06 09:09 26.85084 100.77261 17680 ft 422 kts 85°
2026-05-06 09:09 26.85241 100.80557 18112 ft 426 kts 85°
2026-05-06 09:09 26.85398 100.83887 18520 ft 429 kts 86°
2026-05-06 09:09 26.85554 100.87227 18901 ft 432 kts 86°
2026-05-06 09:10 26.85708 100.90598 19275 ft 435 kts 86°
2026-05-06 09:10 26.86011 100.93973 19637 ft 437 kts 77°
2026-05-06 09:10 26.86825 100.97250 20004 ft 438 kts 66°
2026-05-06 09:10 26.88141 101.00321 20359 ft 437 kts 56°
2026-05-06 09:11 26.89903 101.03092 20695 ft 437 kts 46°
2026-05-06 09:11 26.91860 101.05711 21058 ft 440 kts 46°
2026-05-06 09:11 26.93824 101.08351 21385 ft 442 kts 46°
2026-05-06 09:11 26.95802 101.11024 21648 ft 447 kts 46°
2026-05-06 09:12 26.97792 101.13718 21971 ft 450 kts 46°
2026-05-06 09:12 26.99793 101.16431 22269 ft 454 kts 46°
2026-05-06 09:12 27.01812 101.19170 22611 ft 456 kts 46°
2026-05-06 09:12 27.03840 101.21922 22957 ft 459 kts 46°
2026-05-06 09:13 27.05848 101.24650 23193 ft 461 kts 47°
2026-05-06 09:13 27.07893 101.27426 23416 ft 463 kts 46°
2026-05-06 09:13 27.09951 101.30217 23690 ft 464 kts 46°
2026-05-06 09:13 27.12017 101.33019 23944 ft 468 kts 46°
2026-05-06 09:14 27.14094 101.35839 24233 ft 469 kts 46°
2026-05-06 09:14 27.16171 101.38665 24576 ft 470 kts 47°
2026-05-06 09:14 27.18255 101.41505 24821 ft 472 kts 46°
2026-05-06 09:14 27.20348 101.44357 25042 ft 474 kts 46°
2026-05-06 09:15 27.22454 101.47223 25272 ft 476 kts 46°
2026-05-06 09:15 27.24577 101.50080 25562 ft 477 kts 46°
2026-05-06 09:15 27.26723 101.52938 25847 ft 479 kts 46°
2026-05-06 09:15 27.28875 101.55790 26134 ft 478 kts 46°
2026-05-06 09:16 27.31029 101.58643 26392 ft 479 kts 46°
2026-05-06 09:16 27.33185 101.61509 26603 ft 481 kts 46°
2026-05-06 09:16 27.35345 101.64395 26836 ft 484 kts 46°
2026-05-06 09:16 27.37514 101.67305 27124 ft 486 kts 46°
2026-05-06 09:17 27.39689 101.70227 27408 ft 488 kts 46°
2026-05-06 09:17 27.41874 101.73163 27659 ft 490 kts 46°
2026-05-06 09:17 27.44066 101.76108 27926 ft 492 kts 46°
2026-05-06 09:17 27.46268 101.79066 28162 ft 493 kts 46°
2026-05-06 09:18 27.48477 101.82038 28416 ft 495 kts 46°
2026-05-06 09:18 27.50685 101.85015 28637 ft 497 kts 46°
2026-05-06 09:18 27.52904 101.88006 28781 ft 497 kts 46°
2026-05-06 09:18 27.55125 101.90995 28963 ft 499 kts 46°
2026-05-06 09:19 27.57355 101.93999 29157 ft 500 kts 46°
2026-05-06 09:19 27.59593 101.97017 29369 ft 503 kts 46°
2026-05-06 09:19 27.61843 102.00056 29538 ft 506 kts 46°
2026-05-06 09:19 27.64103 102.03107 29789 ft 507 kts 46°
2026-05-06 09:20 27.66365 102.06161 30024 ft 507 kts 46°
2026-05-06 09:20 27.68623 102.09212 30301 ft 506 kts 46°
2026-05-06 09:20 27.70876 102.12263 30537 ft 506 kts 46°
2026-05-06 09:20 27.73116 102.15334 30751 ft 508 kts 49°
2026-05-06 09:21 27.75030 102.18706 30842 ft 510 kts 59°
2026-05-06 09:21 27.78231 102.25783 30847 ft 504 kts 60°
2026-05-06 09:22 27.81410 102.32833 30848 ft 503 kts 60°
2026-05-06 09:22 27.84600 102.39870 30861 ft 503 kts 60°
2026-05-06 09:23 27.87797 102.46915 30856 ft 504 kts 59°
2026-05-06 09:23 27.90965 102.53936 30886 ft 505 kts 60°
2026-05-06 09:24 27.94141 102.61009 30874 ft 504 kts 60°
2026-05-06 09:24 27.97316 102.68081 30905 ft 504 kts 59°
2026-05-06 09:25 28.00498 102.75148 30917 ft 504 kts 59°
2026-05-06 09:25 28.03676 102.82224 30918 ft 504 kts 59°
2026-05-06 09:26 28.06834 102.89305 30939 ft 505 kts 59°
2026-05-06 09:26 28.10006 102.96413 30953 ft 506 kts 59°
2026-05-06 09:27 28.13186 103.03537 30950 ft 508 kts 59°
2026-05-06 09:27 28.16367 103.10673 30984 ft 507 kts 59°
2026-05-06 09:28 28.19009 103.16619 30992 ft 508 kts 60°
2026-05-06 09:28 28.22716 103.24992 31000 ft 509 kts 60°
2026-05-06 09:29 28.25355 103.30956 31014 ft 509 kts 60°
2026-05-06 09:29 28.28531 103.38135 31012 ft 509 kts 60°
2026-05-06 09:30 28.31703 103.45314 31042 ft 509 kts 60°
2026-05-06 09:30 28.34866 103.52502 31019 ft 509 kts 60°
2026-05-06 09:31 28.38023 103.59707 31005 ft 510 kts 60°
2026-05-06 09:31 28.41184 103.66913 30982 ft 510 kts 60°
2026-05-06 09:32 28.44361 103.74125 30989 ft 511 kts 60°
2026-05-06 09:32 28.47528 103.81354 30966 ft 511 kts 60°
2026-05-06 09:33 28.50695 103.88586 30965 ft 512 kts 60°
2026-05-06 09:33 28.53861 103.95833 30969 ft 512 kts 60°
2026-05-06 09:34 28.57013 104.03088 30988 ft 511 kts 60°
2026-05-06 09:34 28.60137 104.10275 30969 ft 510 kts 61°
2026-05-06 09:35 28.63287 104.17500 30966 ft 509 kts 59°
2026-05-06 09:35 28.65156 104.20883 30962 ft 502 kts 47°
2026-05-06 09:35 28.67521 104.23753 30914 ft 493 kts 35°
2026-05-06 09:35 28.70270 104.26014 30919 ft 484 kts 23°
2026-05-06 09:36 28.73284 104.27610 30912 ft 473 kts 12°
2026-05-06 09:36 28.76432 104.28535 30909 ft 463 kts
2026-05-06 09:36 28.79602 104.28805 30927 ft 453 kts 352°
2026-05-06 09:37 28.85883 104.28472 30923 ft 452 kts 350°
2026-05-06 09:37 28.92162 104.28126 30923 ft 452 kts 350°
2026-05-06 09:38 28.98436 104.27784 30921 ft 452 kts 351°
2026-05-06 09:38 29.04714 104.27440 30923 ft 452 kts 350°
2026-05-06 09:39 29.10993 104.27090 30928 ft 451 kts 351°
2026-05-06 09:39 29.17262 104.26742 30920 ft 451 kts 351°
2026-05-06 09:40 29.23532 104.26400 30914 ft 451 kts 351°
2026-05-06 09:40 29.33010 104.27159 30912 ft 460 kts
2026-05-06 09:41 29.39354 104.28250 30922 ft 461 kts
2026-05-06 09:41 29.45692 104.29340 30923 ft 461 kts
2026-05-06 09:42 29.52033 104.30408 30922 ft 461 kts
2026-05-06 09:42 29.58332 104.31475 30926 ft 461 kts
2026-05-06 09:43 29.64676 104.32558 30940 ft 461 kts
2026-05-06 09:43 29.71019 104.33637 30938 ft 461 kts
2026-05-06 09:44 29.77369 104.34723 30940 ft 461 kts
2026-05-06 09:44 29.83714 104.35812 30939 ft 461 kts
2026-05-06 09:45 29.90060 104.36900 30953 ft 461 kts
2026-05-06 09:45 29.96396 104.37988 30948 ft 460 kts
2026-05-06 09:46 30.02730 104.39076 30945 ft 460 kts
2026-05-06 09:46 30.09061 104.40167 30939 ft 460 kts
2026-05-06 09:47 30.15390 104.41259 30924 ft 459 kts
2026-05-06 09:47 30.21717 104.42351 30941 ft 459 kts
2026-05-06 09:48 30.28034 104.43449 30962 ft 459 kts
2026-05-06 09:48 30.34356 104.44555 30958 ft 459 kts
2026-05-06 09:49 30.40673 104.45657 30954 ft 459 kts
2026-05-06 09:49 30.46991 104.46768 30945 ft 460 kts
2026-05-06 09:50 30.53317 104.47880 30946 ft 460 kts
2026-05-06 09:50 30.59614 104.49289 30940 ft 467 kts 13°
2026-05-06 09:51 30.65452 104.52781 30930 ft 478 kts 28°
2026-05-06 09:51 30.71022 104.57014 30944 ft 478 kts 29°
2026-05-06 09:52 30.76580 104.61237 30957 ft 477 kts 29°
2026-05-06 09:52 30.82126 104.65448 30954 ft 476 kts 29°
2026-05-06 09:53 30.87167 104.70396 30957 ft 483 kts 47°
2026-05-06 09:53 30.90977 104.76866 30945 ft 486 kts 55°
2026-05-06 09:54 30.94628 104.83475 30965 ft 485 kts 55°
2026-05-06 09:54 30.98289 104.90068 30966 ft 483 kts 54°